EW6762 Weather Reports


Display with metric or nautical units.
time (UTC)temp
F
wind
direction
speed
MPH
gust
MPH
rain 1hr
in
rain 24hr
in
rain mn
in
humidity
%
barometer
mb
20260904215313 97 167 4.0 9.0 0.00 0.00 0.00 60 1014.1
20260904214353 99 206 3.0 8.0 0.00 0.00 0.00 60 1014.1
20260904213326 100 227 4.0 7.0 0.00 0.00 0.00 59 1014.1
20260904212322 100 148 4.0 9.0 0.00 0.00 0.00 58 1014.1
20260904211324 101 145 4.0 10.0 0.00 0.00 0.00 58 1013.8
20260904210320 101 183 5.0 8.0 0.00 0.00 0.00 58 1013.6
20260904205311 101 171 4.0 8.0 0.00 0.00 0.00 58 1013.6
20260904204309 100 207 5.0 9.0 0.00 0.00 0.00 59 1013.9
20260904203320 100 148 4.0 12.0 0.00 0.00 0.00 58 1014.1
20260904202317 100 63 4.0 8.0 0.00 0.00 0.00 59 1014.3
20260904201312 100 164 4.0 9.0 0.00 0.00 0.00 60 1014.4
20260904200331 100 196 5.0 10.0 0.00 0.00 0.00 59 1014.6
20260904195324 101 171 5.0 9.0 0.00 0.00 0.00 57 1014.8
20260904194326 101 207 6.0 9.0 0.00 0.00 0.00 59 1014.9
20260904193316 100 324 3.0 10.0 0.00 0.00 0.00 59 1015.2
20260904192335 99 103 3.0 8.0 0.00 0.00 0.00 62 1015.5
20260904191309 99 230 3.0 10.0 0.00 0.00 0.00 60 1015.6
20260904190330 99 257 3.0 10.0 0.00 0.00 0.00 60 1015.6
20260904185320 99 178 4.0 7.0 0.00 0.00 0.00 59 1015.9
20260904184316 99 234 5.0 8.0 0.00 0.00 0.00 61 1016.0
20260904183313 99 285 5.0 8.0 0.00 0.00 0.00 61 1016.2
20260904182325 99 225 3.0 8.0 0.00 0.00 0.00 59 1016.3
20260904181329 100 199 5.0 8.0 0.00 0.00 0.00 59 1016.4
20260904180318 100 86 3.0 6.0 0.00 0.00 0.00 61 1016.5
20260904175334 99 108 4.0 7.0 0.00 0.00 0.00 60 1016.7
20260904174325 98 169 3.0 8.0 0.00 0.00 0.00 62 1016.8
20260904173318 97 158 5.0 11.0 0.00 0.00 0.00 62 1016.9
20260904172343 97 232 5.0 7.0 0.00 0.00 0.00 61 1017.0
20260904171346 97 267 3.0 10.0 0.00 0.00 0.00 63 1017.1
20260904170319 97 185 4.0 8.0 0.00 0.00 0.00 62 1017.2
20260904165316 97 246 4.0 8.0 0.00 0.00 0.00 64 1017.2
20260904164352 96 261 3.0 8.0 0.00 0.00 0.00 64 1017.2
20260904163324 96 111 3.0 7.0 0.00 0.00 0.00 63 1017.3
20260904162319 96 197 4.0 8.0 0.00 0.00 0.00 63 1017.4
20260904161321 95 158 6.0 11.0 0.00 0.00 0.00 65 1017.4
20260904160315 95 219 6.0 9.0 0.00 0.00 0.00 66 1017.3
20260904155316 95 181 5.0 9.0 0.00 0.00 0.00 66 1017.5
20260904154323 94 175 5.0 10.0 0.00 0.00 0.00 68 1017.6
20260904153319 93 254 3.0 10.0 0.00 0.00 0.00 70 1017.7
20260904152314 93 186 4.0 9.0 0.00 0.00 0.00 70 1017.9
20260904151334 92 186 3.0 10.0 0.00 0.00 0.00 70 1018.0
20260904150327 92 190 4.0 9.0 0.00 0.00 0.00 71 1018.1
20260904145318 92 63 4.0 9.0 0.00 0.00 0.00 71 1018.1
20260904144316 91 209 3.0 5.0 0.00 0.00 0.00 73 1018.1
20260904143328 90 229 4.0 8.0 0.00 0.00 0.00 75 1018.0
20260904142324 89 231 5.0 9.0 0.00 0.00 0.00 75 1017.8
20260904141313 89 201 5.0 8.0 0.00 0.00 0.00 76 1017.8
20260904140357 88 244 4.0 8.0 0.00 0.00 0.00 76 1017.7
20260904135325 88 192 3.0 9.0 0.00 0.00 0.00 78 1017.8
20260904134343 87 252 4.0 10.0 0.00 0.00 0.00 79 1017.7
20260904133316 86 171 3.0 9.0 0.00 0.00 0.00 79 1017.6
20260904132335 86 202 5.0 8.0 0.00 0.00 0.00 82 1017.6
20260904131325 85 217 6.0 13.0 0.00 0.00 0.00 83 1017.7
20260904130315 84 202 5.0 9.0 0.00 0.00 0.00 85 1017.7
20260904125315 83 218 5.0 9.0 0.00 0.00 0.00 87 1017.7
20260904124312 83 218 4.0 8.0 0.00 0.00 0.00 89 1017.7
20260904123334 82 245 2.0 10.0 0.00 0.00 0.00 90 1017.8
20260904122328 81 256 4.0 7.0 0.00 0.00 0.00 91 1017.9
20260904121330 81 205 6.0 9.0 0.00 0.00 0.00 92 1018.0
20260904120323 80 229 4.0 6.0 0.00 0.00 0.00 92 1017.9
20260904115325 80 249 3.0 7.0 0.00 0.00 0.00 93 1017.8
20260904114319 80 197 3.0 5.0 0.00 0.00 0.00 93 1017.8
20260904113316 79 244 3.0 6.0 0.00 0.00 0.00 93 1017.8
20260904112317 79 180 2.0 4.0 0.00 0.00 0.00 93 1017.7
20260904111313 79 200 1.0 4.0 0.00 0.00 0.00 93 1017.7
20260904110334 79 180 2.0 5.0 0.00 0.00 0.00 93 1017.6
20260904105330 79 152 2.0 4.0 0.00 0.00 0.00 93 1017.6
20260904104309 79 205 2.0 4.0 0.00 0.00 0.00 92 1017.5
20260904103327 80 218 2.0 4.0 0.00 0.00 0.00 92 1017.3
20260904102330 79 227 2.0 4.0 0.00 0.00 0.00 92 1017.2
20260904101324 80 257 2.0 4.0 0.00 0.00 0.00 92 1017.1
20260904100319 80 184 2.0 4.0 0.00 0.00 0.00 92 1017.1
20260904095318 80 203 2.0 4.0 0.00 0.00 0.00 92 1017.1
20260904094313 80 160 2.0 4.0 0.00 0.00 0.00 92 1017.0
20260904093316 80 211 2.0 4.0 0.00 0.00 0.00 92 1017.0
20260904092328 80 207 2.0 4.0 0.00 0.00 0.00 91 1017.0
20260904091329 80 168 3.0 6.0 0.00 0.00 0.00 91 1016.9
20260904090327 80 207 2.0 5.0 0.00 0.00 0.00 91 1016.8
20260904085348 80 137 2.0 5.0 0.00 0.00 0.00 91 1016.7
20260904084343 80 215 4.0 6.0 0.00 0.00 0.00 91 1016.8
20260904083343 80 205 2.0 5.0 0.00 0.00 0.00 90 1016.8
20260904082318 81 207 3.0 6.0 0.00 0.00 0.00 90 1016.8
20260904081319 81 219 3.0 7.0 0.00 0.00 0.00 90 1016.8
20260904080313 81 175 3.0 6.0 0.00 0.00 0.00 90 1016.6
20260904075334 81 222 4.0 5.0 0.00 0.00 0.00 90 1016.7
20260904074328 81 207 3.0 6.0 0.00 0.00 0.00 90 1016.7
20260904073325 81 179 3.0 5.0 0.00 0.00 0.00 89 1016.8
20260904072339 81 212 3.0 8.0 0.00 0.00 0.00 89 1016.9
20260904071337 81 211 1.0 5.0 0.00 0.00 0.00 89 1016.9
20260904070310 81 234 2.0 8.0 0.00 0.00 0.00 89 1017.0
20260904065332 81 223 3.0 6.0 0.00 0.00 0.00 88 1017.0
20260904064332 82 192 3.0 10.0 0.00 0.00 0.00 88 1017.1
20260904063343 82 209 2.0 5.0 0.00 0.00 0.00 88 1017.3
20260904062318 82 161 2.0 6.0 0.00 0.00 0.00 87 1017.6
20260904061328 82 195 2.0 6.0 0.00 0.00 0.00 87 1017.5
20260904060328 82 155 2.0 6.0 0.00 0.00 0.00 87 1017.5
20260904055320 82 218 3.0 6.0 0.00 0.00 0.00 86 1017.7
20260904054324 82 188 3.0 8.0 0.00 0.00 0.00 86 1017.7
20260904053322 82 229 3.0 7.0 0.00 0.00 0.00 86 1017.7
20260904052316 83 200 3.0 6.0 0.00 0.00 0.00 85 1017.9
20260904051316 83 230 2.0 5.0 0.00 0.00 0.00 85 1017.8
20260904050355 83 178 3.0 7.0 0.00 0.00 0.00 84 1017.9
20260904045310 83 138 3.0 7.0 0.00 0.00 0.00 84 1017.9
20260904044322 83 113 4.0 10.0 0.00 0.00 0.00 83 1018.0
20260904043324 83 140 3.0 7.0 0.00 0.00 0.00 83 1018.0
20260904042316 84 138 3.0 7.0 0.00 0.00 0.00 82 1017.9
20260904041310 84 226 3.0 9.0 0.00 0.00 0.00 81 1017.9
20260904040357 84 137 2.0 7.0 0.00 0.00 0.00 81 1017.9
20260904035328 84 159 3.0 7.0 0.00 0.00 0.00 80 1017.9
20260904034323 84 121 3.0 5.0 0.00 0.00 0.00 79 1018.0
20260904033326 85 123 3.0 7.0 0.00 0.00 0.00 79 1018.1
20260904032321 85 150 3.0 7.0 0.00 0.00 0.00 78 1018.0
20260904031317 85 221 3.0 8.0 0.00 0.00 0.00 77 1018.1
20260904030319 85 155 4.0 7.0 0.00 0.00 0.00 76 1018.1
20260904025335 86 111 3.0 9.0 0.00 0.00 0.00 76 1018.2
20260904024321 86 149 3.0 10.0 0.00 0.00 0.00 75 1018.2
20260904023317 86 150 4.0 8.0 0.00 0.00 0.00 74 1018.1
20260904022314 86 119 4.0 8.0 0.00 0.00 0.00 73 1018.1
20260904021316 87 132 3.0 5.0 0.00 0.00 0.00 73 1018.3
20260904020312 87 144 4.0 7.0 0.00 0.00 0.00 72 1018.2
20260904015336 87 122 3.0 10.0 0.00 0.00 0.00 71 1018.0
20260904014309 88 150 4.0 9.0 0.00 0.00 0.00 71 1017.9
20260904013333 88 150 5.0 12.0 0.00 0.00 0.00 70 1017.7
20260904012329 88 236 3.0 9.0 0.00 0.00 0.00 70 1017.6
20260904011332 89 183 3.0 8.0 0.00 0.00 0.00 70 1017.5
20260904010326 89 143 4.0 8.0 0.00 0.00 0.00 70 1017.2
20260904005320 89 163 6.0 11.0 0.00 0.00 0.00 70 1017.1
20260904004324 90 149 3.0 9.0 0.00 0.00 0.00 71 1017.1
20260904003321 90 143 6.0 10.0 0.00 0.00 0.00 70 1016.9
20260904002322 90 236 5.0 9.0 0.00 0.00 0.00 71 1016.7
20260904001319 90 123 3.0 9.0 0.00 0.00 0.00 70 1016.7
20260904000319 91 171 3.0 5.0 0.00 0.00 0.00 69 1016.3
20260903235323 91 145 3.0 5.0 0.00 0.00 0.00 69 1016.3
20260903234320 92 156 3.0 7.0 0.00 0.00 0.00 68 1016.0
20260903233317 92 159 4.0 7.0 0.00 0.00 0.00 68 1016.0
20260903232317 92 161 3.0 7.0 0.00 0.00 0.00 67 1015.9
20260903231313 93 144 3.0 7.0 0.00 0.00 0.00 66 1016.0
20260903230309 94 74 3.0 7.0 0.00 0.00 0.00 66 1016.1
20260903225331 94 82 3.0 8.0 0.00 0.00 0.00 64 1016.2
20260903224311 95 154 3.0 8.0 0.00 0.00 0.00 64 1016.2
20260903223322 96 166 3.0 7.0 0.00 0.00 0.00 62 1016.2
20260903222324 96 157 3.0 7.0 0.00 0.00 0.00 62 1016.2
20260903221320 97 112 3.0 7.0 0.00 0.00 0.00 60 1016.2
20260903220317 98 162 3.0 7.0 0.00 0.00 0.00 58 1016.2